Other Surface Observations
Issued by NWS Tucson, AZ

Home | Current Version | Previous Version | Text Only | Print | Product List | Glossary On
Versions: 1 2 3 4 5 6 7 8 9 10 11 12 13 14 15 16 17 18 19 20 21 22 23 24 25 26 27 28 29 30 31 32 33 34 35 36 37 38 39 40 41 42 43 44 45 46 47 48 49 50
000
SXUS55 KTWC 311415
OSOTWC

WEATHER ROUNDUP FOR SOUTHEAST ARIZONA
NATIONAL WEATHER SERVICE TUCSON AZ
715 AM MST WED AUG 31 2016

AZZ504>506-514-311515-
LOCATION       SKY/WX    TMP DP  RH WIND       PRES   REMARKS
TUCSON         SUNNY     80  57  45 SE12      30.02R
DAVIS-MONTHAN  SUNNY     78  58  49 E8        30.00R
CHILDRENS PARK N/A      N/A N/A  40 SE14              PIMA CO DEQ
ALVERNON/22ND  N/A       82 N/A N/A E9                PIMA CO DEQ
CHERRY/GLENN   N/A      N/A N/A N/A N/A               PIMA CO DEQ
TANGERINE      N/A       80 N/A N/A SE5               PIMA CO DEQ
CONTL RANCH    N/A       82  56  41 SE13              PIMA CO DEQ
GRANT/1ST      N/A       81  56  43 SE6               PIMA CO DEQ
CRAYCROFT/22ND N/A       81  57  44 E6                PIMA CO DEQ
GOLFLINKS/KOLB N/A      N/A N/A N/A N/A               PIMA CO DEQ
AJO/12TH       N/A       79  58  49 SE8               PIMA CO DEQ
SAGUARO EAST   N/A       24  10  54 W4                PIMA CO DEQ
FAIRGROUNDS    N/A       74 N/A N/A SE15              PIMA CO DEQ
SAGUARO        N/A       82  55  39 E5G17             *SABINO CYN
SAN CARLOS     N/A       74  59  59 NE2               *SAN CARLOS
GREEN VALLEY   N/A       74  55  51 NE3               PIMA CO DEQ
HORSE CAMP CYN N/A       70  56  62 E11G17            *ARAVAIPA CYN
RINCON MTNS    N/A       55  50  84 NE10G18           *NR MANNING CAMP
$$

AZZ509>511-311515-
LOCATION       SKY/WX    TMP DP  RH WIND       PRES   REMARKS
SAFFORD        SUNNY     74  57  55 SE9       30.10R
STRAY HORSE    N/A       52  50  93 CALM              *
TRAIL CABIN    N/A       58  53  84 E3                *N OF GRANVILLE
BLACK HILLS    NOT AVBL
DRY LAKE       N/A       55  52  90 SE7G10            *NATANES MTNS
NOON CREEK     N/A       69  58  69 S3                *PINALENO MTNS
COLUMBINE      N/A       49  45  86 E2                *PINALENO MTNS
GUTHRIE        N/A       58  55  91 E12G17            *SW OF GUTHRIE
$$

AZZ502-503-513-311515-
LOCATION       SKY/WX    TMP DP  RH WIND       PRES   REMARKS
NOGALES        SUNNY     69  57  65 NE7       30.09R
SELLS          N/A       76  57  52 NE3               *
SASABE         N/A       60  54  82 SW3               *ALTAR VLY
HOPKINS        N/A       61  50  67 E13G22            *SANTA RITA MTNS
CARR CYN       N/A       65  56  72 S3                *W OF HEREFORD
$$

AZZ507-508-512-311515-
LOCATION       SKY/WX    TMP DP  RH WIND       PRES   REMARKS
SIERRA VISTA   MOSUNNY   68  57  68 E3        30.17R
DOUGLAS        CLOUDY    70  60  70 E12       30.14R
EMPIRE MTNS    NOT AVBL
MULESHOE RANCH N/A       68  58  70 E10G30            *PRESERVE
HEADQUARTERS   NOT AVBL
$$

.............................NOTES.............................
THIS IS AN AUTOMATED COLLECTIVE WITH MINIMAL QUALITY CONTROL.
PIMA CO DEQ SITES HAVE NONSTANDARD WIND SENSOR HEIGHTS.
PIMA CO DEQ SITES DO NOT REPORT WIND GUSTS.
* INDICATES WIND SENSORS LOCATED AT 20 FEET INSTEAD OF 33 FEET.
..............................KEY..............................
SKY/WX - SKY CONDITION/WEATHER
TMP    - TEMPERATURE IN FAHRENHEIT
DP     - DEWPOINT IN FAHRENHEIT
RH     - RELATIVE HUMIDITY IN PERCENT
WIND   - DIRECTION AND SPEED IN MILES PER HOUR (MPH)
VRB    - VARIABLE WIND DIRECTION
PRES   - MEAN SEA LEVEL PRESSURE IN INCHES OF MERCURY
         F - FALLING PRESSURE   R - RISING PRESSURE
         S - STEADY PRESSURE
VSB    - VISIBILITY IN MILES
HX     - HEAT INDEX IN FAHRENHEIT
WCI    - WIND CHILL INDEX IN FAHRENHEIT
N/A    - NOT AVAILABLE
AFB    - AIR FORCE BASE
         DAVIS-MONTHAN IS DAVIS-MONTHAN AIR FORCE BASE
CYN    - CANYON
MTNS   - MOUNTAINS
NCA    - NATIONAL CONSERVATION AREA
NR     - NEAR
VLY    - VALLEY
CONTL  - CONTINENTAL
PIMA CO DEQ - PIMA COUNTY DEPT OF ENVIRONMENTAL QUALITY



USA.gov is the U.S. government's official web portal to all federal, state and local government web resources and services.